Date String (YYYY-MM-DD hh:mm:ss) UTC,Instrument flags,absolute air pressure of the measurement (hPa),sample flow rate (lpm),inlet stack bypass flow (lpm),air temperature of the measurement (°C),ambient temperature measured by the external sensor (°C),aerosol sample conditioner tube jacket temperature (°C),OPC LED temperature (°C),internal box temperature (°C),relative humidity of the measurement (%),span deviation,mass concentration of particles derived from Lorenz-Mie calculation of OPC scattering (μg/m³),mass concentration of particles derived from Lorenz-Mie calculation of OPC scattering (μg/m³),mass concentration of particles derived from Lorenz-Mie calculation of OPC scattering (μg/m³)
DateTimeUTC,F1_M11,P_M11,Q1_M11,Q2_M11,T1_M11,T2_M11,T3_M11,T4_M11,T5_M11,U1_M11,ZSPAN_M11,X0_M11,X2_M11,X1_M11
2024-04-12 10:00:00,SystemResetWarning,0829.4,5.00,000.00,024.3,023.6,000.0,032.9,026.2,011.1,0000.0,0020.46,0005.53,0002.72
2024-04-12 10:01:00,SystemResetWarning,0829.4,5.00,000.00,024.3,023.6,000.0,032.9,026.2,011.4,0000.0,0020.33,0005.52,0002.74
2024-04-12 10:02:00,SystemResetWarning,0829.4,5.00,000.00,024.3,023.6,000.0,032.9,026.2,011.1,0000.0,0019.21,0005.56,0002.75
2024-04-12 10:03:00,SystemResetWarning,0829.5,5.00,000.00,024.3,023.6,000.0,032.9,026.2,011.1,0000.0,0017.93,0005.50,0002.74
2024-04-12 10:04:00,SystemResetWarning,0829.4,5.00,000.00,024.3,023.6,000.0,032.9,026.2,011.1,0000.0,0017.55,0005.52,0002.75
2024-04-12 10:05:00,SystemResetWarning,0829.5,5.00,000.00,024.3,023.6,000.0,032.9,026.2,010.9,0000.0,0016.98,0005.47,0002.73
2024-04-12 10:06:00,SystemResetWarning,0829.6,5.00,000.00,024.3,023.6,000.0,032.9,026.2,011.1,0000.0,0016.37,0005.47,0002.74
2024-04-12 10:07:00,SystemResetWarning,0829.6,5.00,000.00,024.3,023.6,000.0,032.9,026.2,011.6,0000.0,0016.34,0005.53,0002.75
2024-04-12 10:08:00,SystemResetWarning,0829.5,5.00,000.00,024.3,023.6,000.0,032.8,026.2,011.7,0000.0,0016.44,0005.58,0002.80
2024-04-12 10:09:00,SystemResetWarning,0829.5,5.00,000.00,024.3,023.6,000.0,032.8,026.2,011.7,0000.0,0016.55,0005.57,0002.82
2024-04-12 10:10:00,SystemResetWarning,0829.5,5.01,000.00,024.3,023.6,000.0,032.9,026.2,011.7,0000.0,0016.82,0005.47,0002.81
2024-04-12 10:11:00,SystemResetWarning,0829.4,5.01,000.00,024.3,023.6,000.0,032.9,026.2,011.7,0000.0,0017.49,0005.38,0002.82
2024-04-12 10:12:00,SystemResetWarning,0829.4,4.99,000.00,024.3,023.6,000.0,032.9,026.2,011.5,0000.0,0016.68,0005.36,0002.80
2024-04-12 10:13:00,SystemResetWarning,0829.4,4.99,000.00,024.3,023.6,000.0,032.8,026.2,011.4,0000.0,0016.55,0005.31,0002.75
2024-04-12 10:14:00,SystemResetWarning,0829.4,4.99,000.00,024.3,023.6,000.0,032.8,026.2,011.1,0000.0,0016.78,0005.32,0002.76
2024-04-12 10:15:00,SystemResetWarning,0829.4,5.00,000.00,024.3,023.6,000.0,032.8,026.2,010.8,0000.0,0016.57,0005.34,0002.75
2024-04-12 10:16:00,SystemResetWarning,0829.4,5.00,000.00,024.3,023.6,000.0,032.8,026.2,010.9,0000.0,0017.01,0005.34,0002.76
2024-04-12 10:17:00,SystemResetWarning,0829.4,5.00,000.00,024.3,023.6,000.0,032.8,026.2,010.8,0000.0,0018.40,0005.33,0002.76
2024-04-12 10:18:00,SystemResetWarning,0829.4,5.00,000.00,024.3,023.5,000.0,032.8,026.1,010.8,0000.0,0018.68,0005.31,0002.76
2024-04-12 10:19:00,SystemResetWarning,0829.4,5.00,000.00,024.3,023.5,000.0,032.8,026.1,010.9,0000.0,0018.69,0005.30,0002.73
2024-04-12 10:20:00,SystemResetWarning,0829.4,5.00,000.00,024.3,023.6,000.0,032.8,026.2,011.2,0000.0,0018.41,0005.26,0002.70
2024-04-12 10:21:00,SystemResetWarning,0829.4,5.00,000.00,024.3,023.5,000.0,032.8,026.2,011.4,0000.0,0018.39,0005.27,0002.68
2024-04-12 10:22:00,SystemResetWarning,0829.4,5.00,000.00,024.3,023.5,000.0,032.8,026.1,011.5,0000.0,0017.62,0005.35,0002.70
2024-04-12 10:23:00,SystemResetWarning,0829.4,5.00,000.00,024.3,023.5,000.0,032.8,026.2,011.5,0000.0,0018.88,0005.38,0002.71
2024-04-12 10:24:00,SystemResetWarning,0829.3,5.00,000.00,024.3,023.5,000.0,032.8,026.2,011.4,0000.0,0019.90,0005.43,0002.77
2024-04-12 10:25:00,SystemResetWarning,0829.4,5.00,000.00,024.3,023.5,000.0,032.8,026.1,011.4,0000.0,0019.85,0005.42,0002.76
2024-04-12 10:26:00,SystemResetWarning,0829.4,5.01,000.00,024.3,023.5,000.0,032.8,026.1,011.3,0000.0,0020.38,0005.44,0002.78
2024-04-12 10:27:00,SystemResetWarning,0829.4,5.00,000.00,024.3,023.5,000.0,032.8,026.1,011.2,0000.0,0020.32,0005.45,0002.78
2024-04-12 10:28:00,SystemResetWarning,0829.4,5.00,000.00,024.3,023.5,000.0,032.8,026.1,011.3,0000.0,0018.83,0005.41,0002.78
2024-04-12 10:29:00,SystemResetWarning,0829.4,5.00,000.00,024.3,023.5,000.0,032.8,026.1,011.3,0000.0,0019.66,0005.36,0002.78
2024-04-12 10:30:00,SystemResetWarning,0829.4,5.00,000.00,024.3,023.5,000.0,032.8,026.1,011.1,0000.0,0020.71,0005.31,0002.76
2024-04-12 10:31:00,SystemResetWarning,0829.3,5.00,000.00,024.3,023.5,000.0,032.8,026.1,011.1,0000.0,0021.83,0005.33,0002.78
2024-04-12 10:32:00,SystemResetWarning,0829.3,5.00,000.00,024.2,023.5,000.0,032.8,026.1,011.1,0000.0,0022.15,0005.39,0002.80
2024-04-12 10:33:00,SystemResetWarning,0829.3,5.00,000.00,024.2,023.5,000.0,032.8,026.1,011.1,0000.0,0022.71,0005.40,0002.79
2024-04-12 10:34:00,SystemResetWarning,0829.4,4.99,000.00,024.2,023.5,000.0,032.8,026.1,011.0,0000.0,0022.68,0005.47,0002.82
2024-04-12 10:35:00,SystemResetWarning,0829.4,5.00,000.00,024.2,023.5,000.0,032.8,026.1,010.8,0000.0,0021.56,0005.48,0002.80
2024-04-12 10:36:00,SystemResetWarning,0829.4,5.01,000.00,024.2,023.5,000.0,032.8,026.1,010.7,0000.0,0020.86,0005.46,0002.81
2024-04-12 10:37:00,SystemResetWarning,0829.4,5.00,000.00,024.2,023.5,000.0,032.8,026.1,011.0,0000.0,0020.71,0005.40,0002.80
2024-04-12 10:38:00,SystemResetWarning,0829.3,5.00,000.00,024.2,023.5,000.0,032.8,026.1,011.2,0000.0,0021.06,0005.41,0002.80
2024-04-12 10:39:00,SystemResetWarning,0829.3,5.00,000.00,024.2,023.5,000.0,032.8,026.1,011.2,0000.0,0022.70,0005.44,0002.80
2024-04-12 10:40:00,SystemResetWarning,0829.4,5.00,000.00,024.2,023.5,000.0,032.8,026.1,011.1,0000.0,0021.98,0005.49,0002.81
2024-04-12 10:41:00,SystemResetWarning,0829.3,5.00,000.00,024.2,023.5,000.0,032.8,026.1,011.1,0000.0,0021.92,0005.60,0002.85
2024-04-12 10:42:00,SystemResetWarning,0829.4,5.00,000.00,024.2,023.5,000.0,032.8,026.1,011.1,0000.0,0022.18,0005.63,0002.85
2024-04-12 10:43:00,SystemResetWarning,0829.4,5.00,000.00,024.2,023.5,000.0,032.8,026.1,011.1,0000.0,0020.99,0005.66,0002.88
2024-04-12 10:44:00,SystemResetWarning,0829.4,5.00,000.00,024.2,023.5,000.0,032.8,026.1,011.1,0000.0,0021.75,0005.74,0002.90
2024-04-12 10:45:00,SystemResetWarning,0829.4,5.00,000.00,024.2,023.5,000.0,032.8,026.1,011.0,0000.0,0020.85,0005.74,0002.89
2024-04-12 10:46:00,SystemResetWarning,0829.3,5.00,000.00,024.2,023.5,000.0,032.8,026.1,011.0,0000.0,0021.38,0005.82,0002.89
2024-04-12 10:47:00,SystemResetWarning,0829.4,5.00,000.00,024.2,023.5,000.0,032.8,026.1,011.0,0000.0,0022.77,0005.93,0002.93
2024-04-12 10:48:00,SystemResetWarning,0829.4,5.01,000.00,024.2,023.5,000.0,032.8,026.1,011.1,0000.0,0022.92,0006.01,0002.95
2024-04-12 10:49:00,SystemResetWarning,0829.5,5.00,000.00,024.2,023.5,000.0,032.8,026.1,011.1,0000.0,0023.07,0006.02,0002.96
2024-04-12 10:50:00,SystemResetWarning,0829.5,5.00,000.00,024.2,023.5,000.0,032.8,026.1,011.2,0000.0,0021.84,0005.98,0002.97
2024-04-12 10:51:00,SystemResetWarning,0829.6,5.00,000.00,024.2,023.5,000.0,032.8,026.1,011.3,0000.0,0022.05,0006.00,0002.99
2024-04-12 10:52:00,SystemResetWarning,0829.6,5.00,000.00,024.2,023.5,000.0,032.8,026.1,011.4,0000.0,0022.91,0005.95,0002.97
2024-04-12 10:53:00,SystemResetWarning,0829.5,5.01,000.00,024.2,023.5,000.0,032.8,026.1,011.5,0000.0,0023.44,0005.99,0002.95
2024-04-12 10:54:00,SystemResetWarning,0829.5,5.00,000.00,024.2,023.5,000.0,032.8,026.1,011.5,0000.0,0024.35,0006.03,0002.95
2024-04-12 10:55:00,SystemResetWarning,0829.4,5.01,000.00,024.2,023.5,000.0,032.8,026.0,011.5,0000.0,0024.15,0006.02,0002.94
2024-04-12 10:56:00,SystemResetWarning,0829.5,5.00,000.00,024.2,023.5,000.0,032.8,026.1,011.5,0000.0,0023.61,0005.99,0002.93
2024-04-12 10:57:00,SystemResetWarning,0829.5,5.00,000.00,024.2,023.5,000.0,032.7,026.0,011.6,0000.0,0024.03,0005.93,0002.90
2024-04-12 10:58:00,SystemResetWarning,0829.6,5.00,000.00,024.2,023.4,000.0,032.7,026.0,011.5,0000.0,0022.64,0005.82,0002.87
2024-04-12 10:59:00,SystemResetWarning,0829.6,5.00,000.00,024.2,023.4,000.0,032.7,026.0,011.4,0000.0,0024.28,0005.83,0002.87
